Location: Mohawk View
(42.7837°N, 73.7885°W)
Time: 13:18:10
(UTC+00:00)

Cosmos 883 Rocket - Pass Details

Date: 17 June 2021
Orbit: 950 x 996 km, 83.0° (Epoch: 30 July)

Event Time Altitude Azimuth Distance (km) Brightness Sun altitude
Rises 08:32:50 0° 351° (N) 3,648 8.0 -7.2°
Reaches altitude 10° 08:35:21 10° 350° (N) 2,694 7.3 -6.8°
Maximum altitude 08:41:30 79° 265° (W) 973 4.5 -6.0°
Drops below altitude 10° 08:47:34 10° 179° (S) 2,666 6.4 -5.1°
Sets 08:50:03 0° 178° (S) 3,607 7.1 -4.7°
